THAICOM 6

Last updated on Sat Sep 05 2026 00:03:03 GMT+0000 (Coordinated Universal Time)

1 39500U 14002A 26247.61136007 -.00000128 00000+0 00000+0 0 9999 2 39500 0.0335 126.9189 0003793 22.7876 132.6235 1.00272038 46252
UTC large
Height (km)
Speed (km/s)
/
Latitude / Longitude
Inclination (degrees)
Orbital Period (minutes)
Azimuth
Elevation
Range (km)
Doppler Factor

Next 0 passes for location: London (51.5072 / 0.1276)

No passes found over London.
THAICOM 6